Find Starlink 5525

NORAD ID: 57218 Int'l Des: 2023-094 Owner: SPXS Country: US Constellation: starlink operational
LEOCIRCULAR

当前视图

正在加载3D地球...

About Starlink 5525

Starlink 5525 (NORAD 57218) is a starlink constellation satellite (v1.5) launched Jul 7, 2023 by SPXS of US. It operates in LEO, CIRCULAR orbit with a mass of 305.00 kg.

关于 Starlink 5525

正在加载描述...

即将过境

Passes for default location (London). Set your location on the main map for personalized predictions.

高度历史

Loading altitude history...

两行轨道根数

1 57218U 23094A 26165.37511000 -.00000160 00000-0 37105-5 0 9997
2 57218 43.0048 204.5819 0002086 274.8181 85.2433 15.27576849161906
Epoch: Jun 14, 2026 • Age: 52 hours

当前状态

高度 483.0 km
速度 7.63 km/s
星下点 14.66°N, 110.97°W
发射日期 Jul 7, 2023
运行时间 2.9 years
类型 internet

技术详情

分类 Payload
质量 305.00 kg
干质量 290.00 kg
总质量 305.00 kg
长度 0.20 m
直径 2.80 m
跨度 9.00 m
形状 Box + pan
制造商 SPXS
平台类型 Starlink
阶段状态 In Orbit
所有者/国家 SPXS/US

Most Searched